Location: Kühtai
(47.2167°N, 11.0000°E)
Time: 14:22:35
(UTC+00:00)

Daily predictions for brighter satellites

Satellite Brightness Start Highest point End
(mag) Time Altitude Azimuth Time Altitude Azimuth Time Altitude Azimuth
MetOp-B 4.3 19:43:36 10° SSE 19:48:52 64° ENE 19:54:11 10° N
Cosmos 1110 Rocket 4.3 19:45:23 10° S 19:50:23 47° ESE 19:55:28 10° NNE
X-37B 1.1 19:48:40 10° W 19:51:18 37° SSW 19:53:56 10° SE
SL-8 R/B 4.1 19:51:44 10° WNW 19:56:25 53° SSW 20:01:06 10° SE
Cosmos 2228 3.5 19:54:01 10° N 19:58:06 45° ENE 20:02:10 10° SSE
Cosmos 968 Rocket 4.5 19:56:44 10° N 20:01:29 34° ENE 20:06:15 10° ESE
Cosmos 1697 Rocket 2.8 19:56:40 10° NNW 20:02:19 72° ENE 20:07:54 10° SE
Cosmos 1980 Rocket 3.0 19:57:25 10° NNW 20:02:49 41° NE 20:08:09 10° SE
SL-16 R/B 4.3 20:01:05 10° N 20:04:41 17° NE 20:08:16 10° ENE
ATLAS 5 CENTAUR R/B 3.1 20:09:31 11° SE 20:10:50 12° ESE 20:12:27 10° E
Cosmos 2369 4.2 20:05:34 10° NNW 20:11:11 52° ENE 20:16:35 11° SE
Cosmos 2344 4.4 20:07:43 10° NW 20:16:29 75° NE 20:28:18 11° SE
Cosmos 1408 4.3 20:14:47 11° ESE 20:16:37 16° E 20:18:44 10° NE
Resurs 01 Rocket 2.7 20:12:36 10° S 20:16:49 42° W 20:21:05 10° NNW
Meteor 2-1 Rocket 4.4 20:11:35 10° N 20:17:01 57° ENE 20:22:19 11° SSE
COSMOS 2406 3.4 20:14:54 10° S 20:20:28 52° ESE 20:26:03 10° NE
Cosmos 2184 Rocket 4.1 20:17:56 10° N 20:24:09 85° W 20:30:22 10° S
H-2A R/B 3.5 20:21:42 10° N 20:25:55 42° WNW 20:30:09 10° SW
Cosmos 1833 Rocket 2.7 20:20:27 10° SSW 20:26:04 87° WNW 20:31:44 10° NNE
Cosmos 1867 3.8 20:24:29 10° NNW 20:29:56 63° NE 20:34:38 14° SE
Cosmos 1536 Rocket 4.3 20:27:29 10° SSW 20:31:44 55° WNW 20:36:02 10° N
Cosmos 1703 3.7 20:29:02 10° SSW 20:32:51 63° W 20:36:41 10° N
CARTOSAT-1 4.1 20:29:49 10° S 20:34:03 56° W 20:38:18 10° NNW
Cosmos 1825 4.2 20:33:23 11° ESE 20:34:45 13° E 20:36:35 10° NE
USA 245 3.4 20:32:01 10° S 20:35:55 63° WSW 20:39:03 10° NNW
Cosmos 1606 Rocket 3.5 20:31:48 10° N 20:36:09 74° E 20:39:50 14° SSE
Ariane Rocket 4.0 20:33:19 10° S 20:38:09 43° W 20:43:00 10° NNW
Cosmos 2322 Rocket 4.1 20:34:53 10° N 20:39:04 20° NE 20:43:14 10° E
CZ-4B R/B 3.5 20:43:13 10° NNW 20:45:35 23° WNW 20:47:55 10° WSW
USA 234 4.5 20:40:14 10° ENE 20:46:16 41° N 20:52:18 10° WNW
GP-B 4.2 20:42:42 10° NNE 20:46:34 28° E 20:49:01 18° SE
ARIANE 5 R/B 3.0 20:44:14 17° SE 20:47:26 52° ENE 20:51:44 10° N
Terra 1.9 20:44:04 16° SSE 20:47:51 72° ENE 20:52:36 10° N
SPOT 3 Rocket 4.2 20:44:38 10° S 20:49:42 53° W 20:54:49 10° NNW
SPOT 5 2.7 20:46:56 14° S 20:50:39 74° WSW 20:54:58 10° NNW
RESURS DK-1 4.4 20:49:57 10° WNW 20:53:04 21° WSW 20:56:10 10° SSW
Cosmos 2278 4.1 20:47:31 10° NNW 20:53:10 57° ENE 20:57:25 18° SE
USA 276 2.5 20:51:20 10° WNW 20:54:20 58° NNE 20:56:54 13° E
Cosmos 2341 Rocket 4.2 20:48:21 10° N 20:54:36 60° ENE 20:59:17 18° SSE
FALCON 9 DEB 3.3 20:52:29 10° WNW 20:55:44 65° NNE 20:58:00 18° ESE
Cosmos 1726 Rocket 3.5 20:53:43 10° N 20:58:03 85° W 21:01:15 18° S
Meteor 1-11 4.2 20:58:41 14° S 21:03:23 64° E 21:08:55 10° NNE
Cosmos 2082 Rocket 2.2 20:58:32 10° SSW 21:04:14 80° ESE 21:09:57 10° NNE
Okean 1-7 Rocket 4.5 21:03:32 21° SE 21:05:42 34° E 21:09:46 10° NNE
Cosmos 1486 Rocket 4.4 21:01:13 10° NNW 21:06:20 52° ENE 21:09:45 20° SE
Helios 1A Rocket 3.5 21:04:55 16° S 21:08:02 51° W 21:12:04 10° NNW
Spot 2 Rocket 4.1 21:04:02 13° S 21:08:26 53° W 21:13:26 10° NNW
ASTEX 1 3.8 21:03:53 10° NNE 21:08:44 48° E 21:11:39 22° SSE
Cosmos 1328 4.3 21:05:11 10° SSW 21:09:08 59° W 21:13:05 10° N
TIMED 4.4 21:07:04 13° SSW 21:10:57 74° ESE 21:15:18 10° NNE
Cosmos 2084 Rocket 4.5 21:08:12 10° WNW 21:11:42 31° WSW 21:13:53 19° S
Cosmos 2360 Rocket 4.0 21:09:15 10° N 21:13:45 23° NE 21:18:13 10° E
Nadezhda 1 Rocket 4.5 21:08:32 10° SSW 21:14:31 58° WNW 21:20:31 10° N
Cosmos 1932 4.4 21:11:54 10° SSW 21:18:04 72° ESE 21:24:24 10° NE
Cosmos 2181 Rocket 4.1 21:17:08 20° SSE 21:21:24 61° E 21:27:33 10° NNE
ERS-1 Rocket 3.9 21:22:06 14° SSW 21:26:04 42° W 21:30:53 10° NNW
X-37B 3.0 21:25:13 10° SW 21:25:27 11° SW 21:25:27 11° SW
Cosmos 1892 2.6 21:26:27 24° SSW 21:28:36 82° W 21:32:24 10° N
Cosmos 1602 Rocket 4.4 21:28:28 26° SE 21:29:56 33° E 21:33:49 10° NNE
Cosmos 1503 Rocket 4.2 21:39:32 10° NNW 21:44:49 66° ENE 21:47:32 28° SE
ALOS 2 4.1 21:44:13 19° ESE 21:46:17 27° ENE 21:49:59 10° N
Cosmos 1980 Rocket 3.2 21:41:35 10° NW 21:46:45 36° WSW 21:50:07 19° SSW
Cosmos 2219 Rocket 4.2 21:45:15 10° N 21:49:27 21° NE 21:53:40 10° E
SL-16 R/B 2.3 21:44:10 10° NNW 21:49:52 71° ENE 21:52:57 28° SE
Cosmos 2058 Rocket 4.0 21:46:38 10° NNW 21:50:49 41° W 21:53:20 21° SSW
Cosmos 1408 3.9 21:48:44 16° SW 21:51:00 33° WNW 21:54:10 10° N
Cosmos 1626 Rocket 3.4 21:50:06 32° S 21:52:05 86° E 21:56:28 10° N
USA 267 3.4 21:47:41 10° ENE 21:54:00 49° SE 21:59:31 14° SSW
SL-8 Rocket 4.3 21:47:55 10° NNW 21:54:03 63° W 21:58:01 22° SSW
ATLAS 5 CENTAUR R/B 1.5 21:50:52 10° SW 21:54:34 68° NW 21:58:47 10° NE
Cosmos 2058 4.3 21:53:50 23° ESE 21:54:39 24° E 21:58:02 10° NE
SJ 16-02 1.7 21:57:30 10° NNW 22:01:53 57° ENE 22:03:35 34° SE
In-Cosmos 22 Rocket 4.5 21:59:05 18° SSW 22:03:08 63° WNW 22:08:31 10° N
SL-4 R/B 2.5 22:04:44 33° E 22:04:44 33° E 22:07:07 10° ENE
Cosmos 1825 Rocket 4.4 22:04:05 30° ESE 22:05:03 34° E 22:08:59 10° NNE
Meteor 2-20 4.5 22:03:59 30° SSE 22:07:05 66° E 22:13:07 10° NNE
Cosmos 1825 2.9 22:08:00 27° SW 22:09:39 48° WNW 22:13:18 10° N
Cosmos 2221 4.3 22:10:17 10° NNE 22:13:42 22° ENE 22:15:26 17° ESE
Cosmos 1869 4.2 22:13:27 10° NNW 22:17:06 38° W 22:18:25 29° SW
Cosmos 2322 Rocket 2.1 22:18:12 10° NNW 22:23:55 89° WSW 22:26:28 35° SSE
Terra 4.2 22:23:29 10° WSW 22:26:08 15° W 22:28:47 10° NW
USA 234 3.5 22:22:14 10° ESE 22:28:45 70° NNE 22:35:17 10° NW
USA 276 3.7 22:27:11 10° W 22:28:42 24° W 22:28:42 24° W
Cosmos 1934 Rocket 4.3 22:25:49 10° N 22:31:50 57° ENE 22:34:46 30° SE
Meteor 2-20 Rocket 4.4 22:33:21 34° S 22:36:13 79° E 22:42:20 10° NNE
BREEZE-M DEB (TANK) 3.9 22:34:05 10° WNW 22:37:34 88° NNE 22:52:04 10° ESE
Cosmos 1633 3.5 22:39:00 32° WSW 22:39:52 38° WNW 22:43:09 10° N
Cosmos 1758 Rocket 4.0 22:42:25 34° SW 22:44:03 55° WNW 22:48:23 10° N
Cosmos 1238 4.3 22:44:13 69° WSW 22:44:27 73° W 22:48:03 10° N
Cosmos 2333 Rocket 2.7 22:39:10 10° NNW 22:44:52 57° ENE 22:48:05 26° SE
Cosmos 2082 Rocket 4.5 22:44:37 10° W 22:49:00 22° NW 22:53:24 10° N
COSMOS 2487 4.0 22:52:54 21° ENE 22:52:54 21° ENE 22:54:35 10° NE
Cosmos 1606 3.2 22:50:00 10° NNW 22:53:45 49° W 22:54:21 44° SW
Cosmos-2242 3.9 22:50:07 10° NNW 22:54:04 38° W 22:55:10 32° SW
ADEOS Rocket 3.6 22:53:13 32° S 22:57:09 77° WSW 23:04:58 10° NNW
Cosmos 2360 Rocket 2.2 22:52:41 10° NNW 22:58:22 75° WSW 23:00:31 39° S
ISS -2.0 23:00:48 23° E 23:00:48 23° E 23:02:19 10° ENE
Cosmos 1340 Rocket 2.6 22:58:42 62° S 22:59:19 87° E 23:03:19 10° NNE
Gbstr 26 Del rocket 3.0 22:59:00 29° WSW 23:01:11 83° SSE 23:06:20 10° ENE
Meteor 2-3 Rocket 4.4 23:04:49 31° SE 23:06:48 42° E 23:12:01 10° NNE
Cosmos 2333 4.2 23:02:12 10° NNW 23:08:01 84° ENE 23:10:39 34° SSE
Cosmos 1076 Rocket 4.4 23:09:44 34° ESE 23:10:37 38° E 23:14:40 10° NNE
BREEZE-M DEB (TANK) 2.9 23:12:24 52° ESE 23:12:24 52° ESE 23:17:01 10° ENE
SL-27 R/B 2.8 23:13:18 48° E 23:13:18 48° E 23:16:08 10° NNE
NOSS 3-2 (A) 4.0 23:13:40 30° SE 23:14:48 33° ESE 23:20:13 10° NE
Meteor 2-11 Rocket 4.4 23:08:40 10° N 23:14:49 82° W 23:17:23 37° S
Cosmos 44 3.0 23:14:09 41° SW 23:15:43 85° NW 23:20:12 10° NE
Cosmos 972 Rocket 4.2 23:11:24 10° NNW 23:16:38 69° WSW 23:18:42 39° S
Cosmos 1833 4.1 23:14:26 35° SSW 23:16:53 87° WNW 23:22:31 10° NNE
Cosmos 1782 3.6 23:17:34 10° N 23:21:22 41° ENE 23:22:20 35° ESE
ALOS 2 3.5 23:21:37 31° WSW 23:22:29 35° W 23:26:32 10° NNW
ERS-2 1.9 23:19:00 10° NNE 23:22:36 80° WNW 23:22:56 70° SW
CENTAUR R/B 3.1 23:22:31 32° SSE 23:24:10 37° ESE 23:30:21 10° NE
Cosmos 2237 Rocket 4.0 23:19:47 10° N 23:24:34 27° NE 23:29:19 10° ESE
Cosmos 1605 Rocket 4.0 23:19:05 10° N 23:25:32 88° E 23:28:27 35° S
Cosmos 2297 Rocket 4.0 23:29:19 14° ESE 23:31:13 17° E 23:34:40 10° ENE
COSMOS 2428 3.0 23:25:35 10° NNW 23:31:18 66° ENE 23:34:37 25° SE
Cosmos 2058 4.2 23:29:58 25° WSW 23:31:21 32° WNW 23:35:08 10° N
Cosmos 2151 3.5 23:31:03 41° SE 23:31:57 48° E 23:36:07 10° NNE
SL-16 R/B 3.8 23:29:24 10° NW 23:33:21 20° W 23:34:48 18° WSW
Cosmos 2219 Rocket 2.1 23:28:28 10° NNW 23:34:11 87° WSW 23:36:41 35° SSE
Cosmos 1953 Rocket 4.3 23:33:03 34° WSW 23:34:26 45° WNW 23:38:41 10° N
USA 267 3.6 23:30:41 10° NE 23:37:10 65° NNW 23:43:37 10° WSW
SJ 16-02 3.3 23:37:15 10° WNW 23:39:57 16° W 23:40:31 16° WSW
ATLAS 5 CENTAUR R/B 4.2 23:37:24 10° WNW 23:40:01 16° NNW 23:42:53 10° NNE
SL-4 R/B 2.5 23:40:05 13° W 23:43:05 51° NNW 23:46:45 10° ENE
Cosmos 2322 3.6 23:37:38 10° NNW 23:43:20 81° WSW 23:45:45 36° SSE
Cosmos 1898 Rocket 3.6 23:39:26 10° NNW 23:44:39 73° ENE 23:47:02 32° SE
Cosmos 1937 Rocket 3.9 23:44:37 10° NNW 23:49:50 60° ENE 23:52:46 25° SE
Cosmos 2221 3.3 23:47:18 10° NNW 23:51:23 39° W 23:52:14 35° WSW
COSMOS 2455 3.8 23:46:17 10° NNW 23:52:04 45° NE 23:57:49 10° ESE
PSLV R/B 4.1 23:49:17 10° N 23:53:57 58° WNW 23:55:36 37° SW
Cosmos 1184 Rocket 4.2 23:54:37 10° NNE 23:57:16 26° ENE 23:57:49 25° E
